Weather Roundup
Issued by NWS Chicago, IL

Home | Current Version | Previous Version | Text Only | Print | Product List | Glossary On
Versions: 1 2 3 4 5 6 7 8 9 10 11 12 13 14 15 16 17 18 19 20 21 22 23 24 25 26 27 28 29 30 31 32 33 34 35 36 37 38 39 40 41 42 43 44 45 46 47 48 49 50
000
NZUS59 KLOT 291010
HRRLOT

CHICAGO AREA WEATHER ROUNDUP
NATIONAL WEATHER SERVICE CHICAGO/ROMEOVILLE IL
400 AM CST THU JAN 29 2015

NOTE: "FAIR" INDICATES FEW OR NO CLOUDS BELOW 12,000 FEET WITH NO
SIGNIFICANT WEATHER AND/OR OBSTRUCTIONS TO VISIBILITY.

* THESE STATIONS ARE NOT UNDER NWS QUALITY CONTROL. THEY ALSO MAY NOT
  REPORT WEATHER SUCH AS PRECIPITATION OR FOG.

ILZ005-006-012>014-019>023-291100-
NORTHEAST ILLINOIS

CITY           SKY/WX    TMP DP  RH WIND       PRES   REMARKS
OHARE          MOCLDY    33  27  78 S7        29.70F WCI  27
MIDWAY         MOCLDY    39  28  64 S9        29.71F
AURORA         PTCLDY    32  26  78 SE5       29.70F WCI  27
LANSING*       CLOUDY    36  28  72 S8        29.72F
JOLIET*        PTCLDY    34  28  79 S5        29.71F WCI  30
WAUKEGAN       MOCLDY    31  26  82 CALM      29.71F
DUPAGE AIRPORT PTCLDY    33  26  75 S6        29.69F WCI  28
WHEELING       MOCLDY    34  26  72 S7        29.72F WCI  28
KANKAKEE*      PTCLDY    36  31  81 S9G16     29.71F
MORRIS*        PTCLDY    32  30  90 SE6       29.69F WCI  27
LEWIS AIRPORT* PTCLDY    33  28  79 S9        29.71F WCI  26
NORTHERLY IS     N/A     37  27  67 S7          N/A
$$

WIZ051-052-058>065-066-070>072-291100-
SOUTHEAST WISCONSIN

CITY           SKY/WX    TMP DP  RH WIND       PRES   REMARKS
MILWAUKEE      CLOUDY    33  26  75 CALM      29.73F
KENOSHA*       MOCLDY    31  26  82 NE5       29.72F WCI  26
RACINE*        CLOUDY    34  27  75 CALM      29.74F
BURLINGTON     CLOUDY    31  25  78 N3        29.72F
WAUKESHA       CLOUDY    30  25  80 CALM      29.73F
WEST BEND      CLOUDY    32  25  74 CALM      29.73F
$$

INZ001>003-010>013-019-020-291100-
NORTHWEST INDIANA

CITY           SKY/WX    TMP DP  RH WIND       PRES   REMARKS
GARY*          NOT AVBL
MICHIGAN CITY* NOT AVBL
RENSSELAER*    NOT AVBL
VALPARAISO     CLOUDY    34  24  67 S9        29.74F WCI  27
$$

LMZ740>746-291100-
SOUTHERN LAKE MICHIGAN

STATION/POSITION TIME  SKY/WX   TEMP WIND        PRES    VSBY
                                AIR  DIR/SP/G
                 (UTC)          (F)  (DEG/KT/KT) (MB)    (MI)
HARRISON CRIB    1000            36  160/ 12/ 14   N/A
BURNHAM HARBOR   1000            37  180/  4/ 11   N/A
CALUMET HARBOR   1000            37  170/  8/ 12   N/A
BURNS HARBOR     NOT AVBL
MICHIGAN CITY    1000            37  140/ 14/ 20   N/A
$$

ABBREVIATIONS USED IN REMARKS
   TC - TEMPERATURE IN CELSIUS
  WCI - WIND CHILL INDEX
   HX - HEAT INDEX
  VSB - VISIBILITY
$$



USA.gov is the U.S. government's official web portal to all federal, state and local government web resources and services.